OpenBCM V1.07b12 (Linux)

Packet Radio Mailbox

DB0FHN

[JN59NK Nuernberg]

 Login: GUEST





  
OK1MJO > VESMIR   08.04.03 12:45l 30 Lines 1463 Bytes #999 (0) @ WW
BID : 84DOK0NAG01D
Read: DB0FHN GUEST
Subj: NOAA Kepler 2-line
Path: DB0FHN<DB0RGB<OK0PPL<OK0NAG
Sent: 030408/1032z @:OK0NAG.#BOH.CZE.EU [TCP/IP BBS Plzen] bcm2.01e+

Od: OK1MJO @OK0NAG.#BOH.CZE.EU (Martin JO60SH) Pro: VESMIR @ WW
X-Info: Prijato od 217.66.168.75 za pomoci HTTP rozhrani

NOAA 9                  
1 15427U 84123A   03097.37961423  .00000380  00000-0  21770-3 0  8250
2 15427  98.6586 163.6651 0015808  82.6483 277.6526 14.15041196944907
NOAA 10                 
1 16969U 86073A   03097.64594251  .00000236  00000-0  11493-3 0  7260
2 16969  98.7353  91.6782 0011979 311.2329  48.7816 14.27085455860761
NOAA 11                 
1 19531U 88089A   03097.61041540  .00000316  00000-0  18764-3 0  5638
2 19531  98.8944 178.8149 0012507  67.7308 292.5190 14.14562407749593
NOAA 12                 
1 21263U 91032A   03097.64796587  .00000460  00000-0  21476-3 0   332
2 21263  98.6327  86.4868 0011761 241.5830 118.4161 14.25117864618062
NOAA 14                 
1 23455U 94089A   03097.61487722  .00000195  00000-0  12892-3 0  5856
2 23455  99.1850 117.4454 0010187  93.6534 266.5802 14.13316539426261
NOAA 15                 
1 25338U 98030A   03097.65065021  .00000301  00000-0  14890-3 0   692
2 25338  98.5477 118.4957 0010390 172.0446 188.0899 14.24268731254647
NOAA 16                 
1 26536U 00055A   03097.34490585  .00000468  00000-0  27987-3 0  2794
2 26536  98.9091  45.2954 0010722 166.6336 193.5129 14.11934067130899
NOAA 17                 
1 27453U 02032A   03097.64978288  .00000398  00000-0  19499-3 0  3651
2 27453  98.7476 168.5865 0011278 214.4001 145.6449 14.23325222 40805


73! Martin OK1MJO 


Read previous mail | Read next mail


 15.09.2025 20:36:47lGo back Go up